Bucharest, Romania

8:31 AM EET on February 11, 2016 (GMT +0200)
Bucharest

Weather History for 15420 - March, 2009

Change the Weather History Date:

Monday, March 23, 2009

  Actual Average Record
Temperature  
Mean Temperature 40 °F -  
Max Temperature 53 °F 61 °F - ()
Min Temperature 26 °F 40 °F - ()
Degree Days  
Heating Degree Days 26    
Moisture  
Dew Point 30 °F    
Average Humidity 61    
Maximum Humidity 100    
Minimum Humidity 18    
Precipitation  
Precipitation 0.00 in 0.06 in - ()
Sea Level Pressure  
Sea Level Pressure 29.67 in    
Wind  
Wind Speed 5 mph ()    
Max Wind Speed 16 mph    
Max Gust Speed -    
Visibility 5.9 miles    
Events      
T = Trace of Precipitation, MM = Missing Value Source: Averaged Metar Reports

Daily Weather History Graph

Daily Weather History Graph

Search for Another Location

Airport or City:

Trip Planner

Search our weather history database for the weather conditions in past years. The results will help you decide how hot, cold, wet, or windy it might be!

Date:

Astronomy

Mar. 23, 2009 Rise Set
Actual Time 6:13 AM EET 6:31 PM EET
Civil Twilight 5:44 AM EET 7:00 PM EET
Nautical Twilight 5:10 AM EET 7:35 PM EET
Astronomical Twilight 4:35 AM EET 8:10 PM EET
Moon 4:37 AM EET (3/23) 3:14 PM EET (3/23)
Length of Visible Light 13h 16m
Length of Day
12h 18m
Waning Crescent, 11% of the Moon is Illuminated
Mar 23
Waning Crescent
Mar 26
New
Apr 2
First Quarter
Apr 9
Full
Apr 17
Last Quarter

Hourly Weather History & Observations

Time (EET) Temp. Windchill Dew Point Humidity Pressure Visibility Wind Dir Wind Speed Gust Speed Precip Events Conditions
12:00 AM 38 °F - 30 °F 62% 29.78 in 6 mi West 6.7 mph - -  
12:00 AM 39.2 °F 35.0 °F 35.6 °F 87% 29.74 in - West 5.8 mph - N/A   Clear
12:30 AM 39.2 °F 35.0 °F 37.4 °F 93% 29.74 in - West 5.8 mph - N/A   Clear
1:00 AM 37 °F - 30 °F 67% 29.77 in 6 mi West 4.5 mph - -  
1:00 AM 39.2 °F 35.9 °F 35.6 °F 87% 29.74 in - West 4.6 mph - N/A   Clear
1:30 AM 37.4 °F 33.8 °F 37.4 °F 100% 29.74 in - West 4.6 mph - N/A   Clear
2:00 AM 34 °F - 29 °F 77% 29.77 in 6 mi WSW 4.5 mph - -  
2:00 AM 37.4 °F 32.8 °F 35.6 °F 93% 29.74 in - West 5.8 mph - N/A   Clear
2:30 AM 37.4 °F 34.9 °F 35.6 °F 93% 29.74 in - West 3.5 mph - N/A   Clear
3:00 AM 34 °F - 30 °F 79% 29.76 in 6 mi SW 4.5 mph - -  
3:00 AM 35.6 °F 32.8 °F 35.6 °F 100% 29.74 in - West 3.5 mph - N/A   Clear
3:30 AM 35.6 °F - 33.8 °F 93% 29.74 in - Variable 1.2 mph - N/A   Clear
4:00 AM 32 °F - 29 °F 85% 29.76 in 6 mi North 2.2 mph - -  
4:00 AM 33.8 °F - 33.8 °F 100% 29.74 in - Calm Calm - N/A   Clear
4:30 AM 33.8 °F - 32.0 °F 93% 29.74 in - Calm Calm - N/A   Clear
5:00 AM 28 °F - 27 °F 94% 29.76 in 6 mi East 2.2 mph - -  
5:00 AM 33.8 °F - 33.8 °F 100% 29.74 in - Calm Calm - N/A   Clear
5:30 AM 33.8 °F - 32.0 °F 93% 29.71 in - Calm Calm - N/A   Clear
6:00 AM 27 °F - 27 °F 98% 29.75 in 6 mi WSW 2.2 mph - -  
6:00 AM 32.0 °F - 32.0 °F 100% 29.71 in - Calm Calm - N/A   Clear
6:30 AM 33.8 °F - 32.0 °F 93% 29.71 in 5.0 mi Calm Calm - N/A   Unknown
7:00 AM 28 °F - 28 °F 100% 29.75 in 6 mi Calm Calm - -   Clear
7:00 AM 33.8 °F - 32.0 °F 93% 29.71 in 5.6 mi Calm Calm - N/A   Unknown
7:30 AM 35.6 °F - 35.6 °F 100% 29.71 in 5.6 mi Calm Calm - N/A   Unknown
8:00 AM 34 °F - 34 °F 98% 29.74 in 6 mi Calm Calm - -   Clear
8:00 AM 37.4 °F - 37.4 °F 100% 29.71 in 5.6 mi Variable 1.2 mph - N/A   Unknown
8:30 AM 39.2 °F - 37.4 °F 93% 29.71 in 5.6 mi Variable 1.2 mph - N/A   Unknown
9:00 AM 40 °F - 33 °F 67% 29.74 in 6 mi WNW 2.2 mph - -   Partly Cloudy
9:00 AM 41.0 °F 39.0 °F 39.2 °F 93% 29.71 in - South 3.5 mph - N/A   Clear
9:30 AM 44.6 °F 43.1 °F 32.0 °F 61% 29.71 in - SSE 3.5 mph - N/A   Clear
10:00 AM 45 °F - 27 °F 37% 29.74 in 6 mi ESE 2.2 mph - -   Partly Cloudy
10:00 AM 46.4 °F 43.5 °F 32.0 °F 57% 29.71 in - SSE 5.8 mph - N/A   Clear
10:30 AM 46.4 °F 44.3 °F 32.0 °F 57% 29.71 in - SE 4.6 mph - N/A   Clear
11:00 AM 49 °F - 25 °F 26% 29.73 in 6 mi East 2.2 mph - -   Partly Cloudy
11:00 AM 48.2 °F - 30.2 °F 50% 29.71 in - Variable 2.3 mph - N/A   Clear
11:30 AM 48.2 °F - 28.4 °F 46% 29.68 in - Variable 3.5 mph - N/A   Clear
12:00 PM 51 °F - 22 °F 20% 29.71 in 6 mi SSE 2.2 mph - -   Scattered Clouds
12:00 PM 51.8 °F - 28.4 °F 41% 29.68 in - Variable 3.5 mph - N/A   Clear
12:30 PM 51.8 °F - 24.8 °F 35% 29.68 in - Variable 3.5 mph - N/A   Clear
1:00 PM 52 °F - 21 °F 18% 29.69 in 6 mi SW 6.7 mph - -   Scattered Clouds
1:00 PM 51.8 °F - 28.4 °F 41% 29.65 in - WSW 4.6 mph - N/A   Clear
1:30 PM 53.6 °F - 28.4 °F 38% 29.65 in - WSW 8.1 mph - N/A   Clear
2:00 PM 53 °F - 22 °F 18% 29.66 in 6 mi West 6.7 mph - -   Scattered Clouds
2:30 PM 53.6 °F - 28.4 °F 38% 29.62 in - West 12.7 mph - N/A   Clear
3:00 PM 53 °F - 22 °F 18% 29.63 in 6 mi WSW 11.2 mph - -   Scattered Clouds
3:00 PM 53.6 °F - 28.4 °F 38% 29.59 in - West 11.5 mph - N/A   Clear
3:30 PM 53.6 °F - 28.4 °F 38% 29.59 in - West 10.4 mph - N/A   Clear
4:00 PM 52 °F - 22 °F 19% 29.61 in 6 mi WSW 11.2 mph - -   Partly Cloudy
4:00 PM 53.6 °F - 28.4 °F 38% 29.59 in - West 11.5 mph - N/A   Clear
4:30 PM 53.6 °F - 28.4 °F 38% 29.56 in - West 11.5 mph - N/A   Clear
5:00 PM 53 °F - 22 °F 18% 29.60 in 6 mi West 11.2 mph - -   Scattered Clouds
5:00 PM 53.6 °F - 26.6 °F 35% 29.56 in - West 12.7 mph - N/A   Clear
5:30 PM 53.6 °F - 26.6 °F 35% 29.56 in - West 16.1 mph - N/A   Clear
6:00 PM 53 °F - 22 °F 18% 29.58 in 6 mi WSW 13.4 mph - -   Partly Cloudy
6:00 PM 53.6 °F - 28.4 °F 38% 29.56 in - West 11.5 mph - N/A   Clear
6:30 PM 51.8 °F - 28.4 °F 41% 29.56 in - West 11.5 mph - N/A   Clear
7:00 PM 50 °F - 22 °F 20% 29.59 in 6 mi WSW 8.9 mph - -   Partly Cloudy
7:00 PM 51.8 °F - 30.2 °F 44% 29.56 in - West 10.4 mph - N/A   Clear
7:30 PM 50.0 °F - 32.0 °F 50% 29.56 in - West 11.5 mph - N/A   Clear
8:00 PM 49 °F - 24 °F 25% 29.60 in 6 mi WSW 11.2 mph - -   Partly Cloudy
8:00 PM 48.2 °F - 33.8 °F 58% 29.59 in - West 15.0 mph - N/A   Unknown
8:30 PM 48.2 °F - 33.8 °F 58% 29.59 in - West 13.8 mph - N/A   Clear
9:00 PM 47 °F - 26 °F 31% 29.62 in 6 mi WSW 11.2 mph - -   Scattered Clouds
9:00 PM 48.2 °F - 33.8 °F 58% 29.59 in - West 13.8 mph - N/A   Clear
9:30 PM 46.4 °F 41.1 °F 33.8 °F 62% 29.62 in - West 11.5 mph - N/A   Clear
10:00 PM 45 °F - 27 °F 36% 29.63 in 6 mi West 13.4 mph - -  
10:00 PM 46.4 °F 41.9 °F 35.6 °F 66% 29.62 in - West 9.2 mph - N/A   Clear
10:30 PM 44.6 °F 39.7 °F 35.6 °F 71% 29.62 in - WNW 9.2 mph - N/A   Clear
11:00 PM 43 °F - 29 °F 46% 29.64 in 6 mi West 6.7 mph - -  
11:00 PM 44.6 °F 41.4 °F 35.6 °F 71% 29.59 in - West 5.8 mph - N/A   Clear
11:30 PM 42.8 °F 39.3 °F 35.6 °F 76% 29.59 in - West 5.8 mph - N/A   Clear